User: anonymous   Login
Location: St. Louis
(38.6270°N, 90.1994°W)
Time: 15:22:22
(UTC-06:00)
Language:

METEOR M2 - Orbit

View from above orbital plane
View from above orbital plane
View from above satellite
View from above satellite

Ground track
Ground track

The orbit data is extracted from the following two-line orbital elements,

1 40069U 14037A   22021.48144988  .00000001  00000-0  19536-4 0  9996
2 40069  98.4435  45.9083 0006485  39.0064 321.1582 14.20695678390998
Epoch (UTC): 21 January 2022 11:33:17
Eccentricity: 0.0006485
inclination: 98.4435°
perigee height: 818 km
apogee height: 827 km
right ascension of ascending node: 45.9083°
argument of perigee: 39.0064°
revolutions per day: 14.20695678
mean anomaly at epoch: 321.1582°
orbit number at epoch: 39099

The dashed part of the orbit path shows where the satellite is in the earth's shadow,  

DLR